一网星座-0589星 (ONEWEB-0589 )

导读

ONEWEB-0589是英国OneWeb星座系统中的一颗低轨通信卫星,于2022年12月8日发射入轨。卫星重约147.5千克,运行于约1200公里高度的近极轨轨道,采用Ku/Ka波段通信、氙气电推进系统,设计寿命5年。它属于OneWeb全球卫星互联网星座的组成部分,旨在为全球包括偏远地区、高纬度区域提供宽带互联网接入服务,支持海事、航空、应急通信等多场景应用。

基本信息
目录编号:
54655
目录名称:
ONEWEB-0589
国际标识:
2022-166P
轨道中心:
EARTH
卫星名称:
一网星座-0589星
卫星全名:
一网星座-0589星 (ONEWEB-0589 )
卫星状态:
在轨 (已飞行1284 天)
发射日期:
2022-12-08 UTC
国别 :
英国 (GB)
星等 :
--
轨道信息
数据来源 国际轨道数据 AOE轨道数据
星历时间 2026-06-14T06:36:18+0800
13小时前
查看轨道信息
2026-06-14T03:00:00+0800
17小时前
查看轨道信息
半长轴 7555.9km 7555.9km
偏心率 0.0002514 0.0002174
轨道倾角 87.925° 87.926°
近地点辐角 80.619° 72.821°
升交点赤经 244.627° 244.656°
平近点角 279.523° 292.984°
近地点 1175.863km 1176.12km
远地点 1179.663km 1179.406km
周期 108.940分钟 108.940分钟
每日圈数 13.218237 13.218236
详细信息
平衡模式:
三轴稳定
覆盖范围:
全球
运营商:
一网卫星公司
运营商所在国:
英国
制造商(研发单位):
一网卫星公司
制造商所在国:
英国
使用方式:
暂无
卫星简介
OneWeb卫星网络由648颗重约125公斤的微型卫星组成,运行在1200公里的轨道上。 每颗卫星都能够提供至少每秒8千兆位的吞吐量,以使用其高吞吐量的Ku频段有效载荷为家庭和移动平台提供互联网接入。该卫星仍在工作。
2D轨道图
3D轨道图
轨道高度分析图
轨道倾角分析图
轨道综合分析图
查看轨道综合分析图